Time,TemperatureF,DewpointF,PressureIn,WindDirection,WindDirectionDegrees,WindSpeedMPH,WindSpeedGustMPH,Humidity,HourlyPrecipIn,Conditions,Clouds,dailyrainin,SoftwareType,DateUTC
2013-03-22 00:05:00,47.9,8.7,29.65,North,355,5.0,6.0,20,0.00,,,0.00,Wunderground v.1.15,2013-03-22 06:05:00,
2013-03-22 00:10:00,47.4,8.3,29.65,North,355,5.0,5.0,20,0.00,,,0.00,Wunderground v.1.15,2013-03-22 06:10:00,
2013-03-22 00:15:00,47.3,8.2,29.66,North,355,4.0,6.0,20,0.00,,,0.00,Wunderground v.1.15,2013-03-22 06:15:00,
2013-03-22 00:21:00,47.1,6.9,29.66,North,351,5.0,5.0,19,0.00,,,0.00,Wunderground v.1.15,2013-03-22 06:21:00,
2013-03-22 00:26:00,47.2,7.0,29.66,North,351,5.0,6.0,19,0.00,,,0.00,Wunderground v.1.15,2013-03-22 06:26:00,
2013-03-22 00:31:00,47.2,7.0,29.66,North,351,4.0,7.0,19,0.00,,,0.00,Wunderground v.1.15,2013-03-22 06:31:00,
2013-03-22 00:36:00,47.2,7.0,29.66,North,355,5.0,7.0,19,0.00,,,0.00,Wunderground v.1.15,2013-03-22 06:36:00,
2013-03-22 00:42:00,47.4,5.9,29.66,North,355,6.0,8.0,18,0.00,,,0.00,Wunderground v.1.15,2013-03-22 06:42:00,
2013-03-22 00:47:00,47.3,5.9,29.66,NNW,346,6.0,9.0,18,0.00,,,0.00,Wunderground v.1.15,2013-03-22 06:47:00,
2013-03-22 00:52:00,47.4,5.9,29.66,NNW,347,6.0,6.0,18,0.00,,,0.00,Wunderground v.1.15,2013-03-22 06:52:00,
2013-03-22 00:58:00,47.3,5.9,29.66,NNW,345,6.0,7.0,18,0.00,,,0.00,Wunderground v.1.15,2013-03-22 06:58:00,
2013-03-22 01:03:00,47.4,5.9,29.66,NNW,344,6.0,6.0,18,0.00,,,0.00,Wunderground v.1.15,2013-03-22 07:03:00,
2013-03-22 01:09:00,47.5,6.0,29.66,NNW,345,4.0,6.0,18,0.00,,,0.00,Wunderground v.1.15,2013-03-22 07:09:00,
2013-03-22 01:14:00,48.1,6.5,29.66,North,350,5.0,9.0,18,0.00,,,0.00,Wunderground v.1.15,2013-03-22 07:14:00,
2013-03-22 01:20:00,48.5,6.8,29.66,NNW,344,6.0,8.0,18,0.00,,,0.00,Wunderground v.1.15,2013-03-22 07:20:00,
2013-03-22 01:26:00,48.4,6.8,29.66,NNW,344,5.0,9.0,18,0.00,,,0.00,Wunderground v.1.15,2013-03-22 07:26:00,
2013-03-22 01:31:00,48.3,6.7,29.66,NNW,344,5.0,6.0,18,0.00,,,0.00,Wunderground v.1.15,2013-03-22 07:31:00,
2013-03-22 01:37:00,47.8,7.5,29.67,NNW,344,4.0,6.0,19,0.00,,,0.00,Wunderground v.1.15,2013-03-22 07:37:00,
2013-03-22 01:42:00,46.6,6.5,29.67,NNW,344,1.0,2.0,19,0.00,,,0.00,Wunderground v.1.15,2013-03-22 07:42:00,
2013-03-22 01:48:00,45.3,6.5,29.67,NNW,346,1.0,5.0,20,0.00,,,0.00,Wunderground v.1.15,2013-03-22 07:48:00,
2013-03-22 01:53:00,44.7,6.0,29.67,North,9,3.0,4.0,20,0.00,,,0.00,Wunderground v.1.15,2013-03-22 07:53:00,
2013-03-22 01:59:00,44.7,6.0,29.67,North,5,3.0,5.0,20,0.00,,,0.00,Wunderground v.1.15,2013-03-22 07:59:00,
2013-03-22 02:04:00,44.3,5.7,29.67,North,5,4.0,6.0,20,0.00,,,0.00,Wunderground v.1.15,2013-03-22 08:04:00,
2013-03-22 02:10:00,43.9,5.3,29.67,North,5,2.0,2.0,20,0.00,,,0.00,Wunderground v.1.15,2013-03-22 08:10:00,
2013-03-22 02:15:00,43.5,6.1,29.67,North,5,1.0,3.0,21,0.00,,,0.00,Wunderground v.1.15,2013-03-22 08:15:00,
2013-03-22 02:20:00,43.7,6.2,29.67,North,5,1.0,1.0,21,0.00,,,0.00,Wunderground v.1.15,2013-03-22 08:20:00,
2013-03-22 02:26:00,43.7,6.2,29.67,North,5,1.0,1.0,21,0.00,,,0.00,Wunderground v.1.15,2013-03-22 08:26:00,
2013-03-22 02:31:00,43.4,6.0,29.67,North,5,1.0,3.0,21,0.00,,,0.00,Wunderground v.1.15,2013-03-22 08:31:00,
2013-03-22 02:36:00,43.1,5.7,29.67,North,5,2.0,3.0,21,0.00,,,0.00,Wunderground v.1.15,2013-03-22 08:36:00,
2013-03-22 02:41:00,42.6,6.3,29.67,North,5,1.0,2.0,22,0.00,,,0.00,Wunderground v.1.15,2013-03-22 08:41:00,
2013-03-22 02:46:00,41.9,5.8,29.67,North,5,2.0,4.0,22,0.00,,,0.00,Wunderground v.1.15,2013-03-22 08:46:00,
2013-03-22 02:51:00,41.6,6.5,29.67,North,5,3.0,5.0,23,0.00,,,0.00,Wunderground v.1.15,2013-03-22 08:51:00,
2013-03-22 02:57:00,42.8,6.5,29.67,North,5,4.0,7.0,22,0.00,,,0.00,Wunderground v.1.15,2013-03-22 08:57:00,
2013-03-22 03:03:00,44.7,7.1,29.67,North,360,5.0,7.0,21,0.00,,,0.00,Wunderground v.1.15,2013-03-22 09:03:00,
2013-03-22 03:09:00,45.3,6.5,29.67,North,5,6.0,8.0,20,0.00,,,0.00,Wunderground v.1.15,2013-03-22 09:09:00,
2013-03-22 03:14:00,45.3,6.5,29.67,North,360,5.0,7.0,20,0.00,,,0.00,Wunderground v.1.15,2013-03-22 09:14:00,
2013-03-22 03:20:00,44.9,6.2,29.67,North,355,5.0,5.0,20,0.00,,,0.00,Wunderground v.1.15,2013-03-22 09:20:00,
2013-03-22 03:26:00,44.0,6.5,29.67,North,355,4.0,6.0,21,0.00,,,0.00,Wunderground v.1.15,2013-03-22 09:26:00,
2013-03-22 03:31:00,43.7,6.2,29.67,North,355,3.0,4.0,21,0.00,,,0.00,Wunderground v.1.15,2013-03-22 09:31:00,
2013-03-22 03:36:00,43.6,6.2,29.67,North,355,2.0,4.0,21,0.00,,,0.00,Wunderground v.1.15,2013-03-22 09:36:00,
2013-03-22 03:42:00,43.9,6.4,29.67,North,355,2.0,7.0,21,0.00,,,0.00,Wunderground v.1.15,2013-03-22 09:42:00,
2013-03-22 03:47:00,43.8,6.3,29.67,North,355,3.0,7.0,21,0.00,,,0.00,Wunderground v.1.15,2013-03-22 09:47:00,
2013-03-22 03:53:00,42.4,7.2,29.67,North,355,1.0,3.0,23,0.00,,,0.00,Wunderground v.1.15,2013-03-22 09:53:00,
2013-03-22 03:58:00,41.7,6.6,29.67,North,355,1.0,3.0,23,0.00,,,0.00,Wunderground v.1.15,2013-03-22 09:58:00,
2013-03-22 04:04:00,41.7,7.5,29.67,North,355,1.0,2.0,24,0.00,,,0.00,Wunderground v.1.15,2013-03-22 10:04:00,
2013-03-22 04:09:00,41.4,7.2,29.67,North,355,1.0,2.0,24,0.00,,,0.00,Wunderground v.1.15,2013-03-22 10:09:00,
2013-03-22 04:14:00,41.2,7.1,29.67,North,355,0.0,1.0,24,0.00,,,0.00,Wunderground v.1.15,2013-03-22 10:14:00,
2013-03-22 04:20:00,41.1,7.0,29.67,North,355,0.0,0.0,24,0.00,,,0.00,Wunderground v.1.15,2013-03-22 10:20:00,
2013-03-22 04:25:00,41.0,6.9,29.67,North,355,0.0,0.0,24,0.00,,,0.00,Wunderground v.1.15,2013-03-22 10:25:00,
2013-03-22 04:31:00,40.1,7.0,29.67,North,355,2.0,3.0,25,0.00,,,0.00,Wunderground v.1.15,2013-03-22 10:31:00,
2013-03-22 04:36:00,39.7,7.6,29.67,North,355,3.0,3.0,26,0.00,,,0.00,Wunderground v.1.15,2013-03-22 10:36:00,
2013-03-22 04:42:00,40.0,6.9,29.67,North,355,2.0,3.0,25,0.00,,,0.00,Wunderground v.1.15,2013-03-22 10:42:00,
2013-03-22 04:47:00,40.2,7.1,29.68,North,355,1.0,3.0,25,0.00,,,0.00,Wunderground v.1.15,2013-03-22 10:47:00,
2013-03-22 04:53:00,39.9,6.9,29.68,North,355,1.0,2.0,25,0.00,,,0.00,Wunderground v.1.15,2013-03-22 10:53:00,
2013-03-22 04:58:00,39.4,6.4,29.68,North,355,1.0,3.0,25,0.00,,,0.00,Wunderground v.1.15,2013-03-22 10:58:00,
2013-03-22 05:04:00,39.2,6.3,29.68,North,355,2.0,4.0,25,0.00,,,0.00,Wunderground v.1.15,2013-03-22 11:04:00,
2013-03-22 05:10:00,39.3,6.3,29.68,North,355,3.0,3.0,25,0.00,,,0.00,Wunderground v.1.15,2013-03-22 11:10:00,
2013-03-22 05:15:00,39.7,6.7,29.68,North,355,2.0,3.0,25,0.00,,,0.00,Wunderground v.1.15,2013-03-22 11:15:00,
2013-03-22 05:20:00,40.1,7.0,29.68,North,355,1.0,1.0,25,0.00,,,0.00,Wunderground v.1.15,2013-03-22 11:20:00,
2013-03-22 05:26:00,39.9,6.9,29.69,North,355,1.0,3.0,25,0.00,,,0.00,Wunderground v.1.15,2013-03-22 11:26:00,
2013-03-22 05:32:00,39.3,7.2,29.69,North,355,1.0,1.0,26,0.00,,,0.00,Wunderground v.1.15,2013-03-22 11:32:00,
2013-03-22 05:37:00,39.2,7.1,29.69,North,355,0.0,1.0,26,0.00,,,0.00,Wunderground v.1.15,2013-03-22 11:37:00,
2013-03-22 05:43:00,39.2,7.1,29.69,North,355,1.0,2.0,26,0.00,,,0.00,Wunderground v.1.15,2013-03-22 11:43:00,
2013-03-22 05:48:00,39.3,7.2,29.69,North,355,2.0,2.0,26,0.00,,,0.00,Wunderground v.1.15,2013-03-22 11:48:00,
2013-03-22 05:53:00,39.1,7.0,29.70,North,355,2.0,4.0,26,0.00,,,0.00,Wunderground v.1.15,2013-03-22 11:53:00,
2013-03-22 05:59:00,38.6,6.6,29.70,North,355,3.0,4.0,26,0.00,,,0.00,Wunderground v.1.15,2013-03-22 11:59:00,
2013-03-22 06:05:00,38.5,6.5,29.71,North,355,3.0,3.0,26,0.00,,,0.00,Wunderground v.1.15,2013-03-22 12:05:00,
2013-03-22 06:11:00,38.3,6.4,29.71,North,355,3.0,4.0,26,0.00,,,0.00,Wunderground v.1.15,2013-03-22 12:11:00,
2013-03-22 06:17:00,38.1,6.2,29.71,North,355,4.0,5.0,26,0.00,,,0.00,Wunderground v.1.15,2013-03-22 12:17:00,
2013-03-22 06:23:00,38.2,6.3,29.72,North,355,4.0,4.0,26,0.00,,,0.00,Wunderground v.1.15,2013-03-22 12:23:00,
2013-03-22 06:28:00,38.2,6.3,29.72,North,355,3.0,4.0,26,0.00,,,0.00,Wunderground v.1.15,2013-03-22 12:28:00,
2013-03-22 06:33:00,38.3,6.4,29.72,North,355,3.0,4.0,26,0.00,,,0.00,Wunderground v.1.15,2013-03-22 12:33:00,
2013-03-22 06:38:00,38.1,6.2,29.72,North,355,3.0,5.0,26,0.00,,,0.00,Wunderground v.1.15,2013-03-22 12:38:00,
2013-03-22 06:43:00,38.1,7.0,29.72,North,355,3.0,4.0,27,0.00,,,0.00,Wunderground v.1.15,2013-03-22 12:43:00,
2013-03-22 06:49:00,37.8,6.8,29.73,North,355,3.0,4.0,27,0.00,,,0.00,Wunderground v.1.15,2013-03-22 12:49:00,
2013-03-22 06:54:00,37.2,6.2,29.73,North,355,2.0,3.0,27,0.00,,,0.00,Wunderground v.1.15,2013-03-22 12:54:00,
2013-03-22 07:00:00,36.8,6.7,29.73,North,355,0.0,0.0,28,0.00,,,0.00,Wunderground v.1.15,2013-03-22 13:00:00,
2013-03-22 07:06:00,36.1,6.1,29.73,North,355,0.0,1.0,28,0.00,,,0.00,Wunderground v.1.15,2013-03-22 13:06:00,
2013-03-22 07:11:00,35.4,6.2,29.73,North,355,1.0,3.0,29,0.00,,,0.00,Wunderground v.1.15,2013-03-22 13:11:00,
2013-03-22 07:17:00,35.9,6.7,29.74,North,355,2.0,3.0,29,0.00,,,0.00,Wunderground v.1.15,2013-03-22 13:17:00,
2013-03-22 07:22:00,36.2,6.9,29.74,North,355,1.0,2.0,29,0.00,,,0.00,Wunderground v.1.15,2013-03-22 13:22:00,
2013-03-22 07:28:00,36.2,6.9,29.74,North,355,1.0,2.0,29,0.00,,,0.00,Wunderground v.1.15,2013-03-22 13:28:00,
2013-03-22 07:33:00,36.1,6.9,29.74,North,355,1.0,4.0,29,0.00,,,0.00,Wunderground v.1.15,2013-03-22 13:33:00,
2013-03-22 07:39:00,36.5,7.2,29.74,North,355,1.0,4.0,29,0.00,,,0.00,Wunderground v.1.15,2013-03-22 13:39:00,
2013-03-22 07:44:00,36.9,7.5,29.75,North,355,0.0,1.0,29,0.00,,,0.00,Wunderground v.1.15,2013-03-22 13:44:00,
2013-03-22 07:50:00,37.4,7.2,29.75,North,355,0.0,0.0,28,0.00,,,0.00,Wunderground v.1.15,2013-03-22 13:50:00,
2013-03-22 07:55:00,37.9,7.6,29.75,North,355,0.0,0.0,28,0.00,,,0.00,Wunderground v.1.15,2013-03-22 13:55:00,
2013-03-22 08:00:00,38.6,8.2,29.75,North,355,0.0,0.0,28,0.00,,,0.00,Wunderground v.1.15,2013-03-22 14:00:00,
2013-03-22 08:06:00,39.6,8.3,29.75,North,355,1.0,4.0,27,0.00,,,0.00,Wunderground v.1.15,2013-03-22 14:06:00,
2013-03-22 08:12:00,40.8,8.5,29.75,North,355,2.0,3.0,26,0.00,,,0.00,Wunderground v.1.15,2013-03-22 14:12:00,
2013-03-22 08:17:00,41.7,8.4,29.76,North,355,3.0,3.0,25,0.00,,,0.00,Wunderground v.1.15,2013-03-22 14:17:00,
2013-03-22 08:23:00,42.9,8.5,29.76,North,355,3.0,5.0,24,0.00,,,0.00,Wunderground v.1.15,2013-03-22 14:23:00,
2013-03-22 08:28:00,43.7,9.2,29.75,North,355,3.0,5.0,24,0.00,,,0.00,Wunderground v.1.15,2013-03-22 14:28:00,
2013-03-22 08:34:00,44.6,9.0,29.75,North,355,2.0,2.0,23,0.00,,,0.00,Wunderground v.1.15,2013-03-22 14:34:00,
2013-03-22 08:40:00,45.6,8.9,29.75,North,355,1.0,1.0,22,0.00,,,0.00,Wunderground v.1.15,2013-03-22 14:40:00,
2013-03-22 08:45:00,46.1,9.3,29.75,North,355,1.0,3.0,22,0.00,,,0.00,Wunderground v.1.15,2013-03-22 14:45:00,
2013-03-22 08:51:00,46.8,10.9,29.75,North,355,1.0,1.0,23,0.00,,,0.00,Wunderground v.1.15,2013-03-22 14:51:00,
2013-03-22 08:57:00,47.4,12.4,29.75,North,355,1.0,1.0,24,0.00,,,0.00,Wunderground v.1.15,2013-03-22 14:57:00,
2013-03-22 09:02:00,47.7,11.6,29.75,North,355,0.0,0.0,23,0.00,,,0.00,Wunderground v.1.15,2013-03-22 15:02:00,
2013-03-22 09:07:00,48.3,11.2,29.75,North,355,0.0,1.0,22,0.00,,,0.00,Wunderground v.1.15,2013-03-22 15:07:00,
2013-03-22 09:13:00,48.7,11.5,29.75,North,355,0.0,2.0,22,0.00,,,0.00,Wunderground v.1.15,2013-03-22 15:13:00,
2013-03-22 09:18:00,48.7,11.5,29.75,North,360,1.0,2.0,22,0.00,,,0.00,Wunderground v.1.15,2013-03-22 15:18:00,
2013-03-22 09:23:00,48.9,11.7,29.75,North,360,1.0,2.0,22,0.00,,,0.00,Wunderground v.1.15,2013-03-22 15:23:00,
2013-03-22 09:29:00,49.5,12.2,29.76,North,360,1.0,3.0,22,0.00,,,0.00,Wunderground v.1.15,2013-03-22 15:29:00,
2013-03-22 09:34:00,49.9,9.2,29.76,North,360,2.0,5.0,19,0.00,,,0.00,Wunderground v.1.15,2013-03-22 15:34:00,
2013-03-22 09:40:00,50.2,10.6,29.76,North,5,2.0,2.0,20,0.00,,,0.00,Wunderground v.1.15,2013-03-22 15:40:00,
2013-03-22 09:45:00,50.6,8.6,29.76,North,5,1.0,4.0,18,0.00,,,0.00,Wunderground v.1.15,2013-03-22 15:45:00,
2013-03-22 09:51:00,50.8,7.5,29.76,North,5,1.0,1.0,17,0.00,,,0.00,Wunderground v.1.15,2013-03-22 15:51:00,
2013-03-22 09:57:00,51.5,8.0,29.76,North,5,0.0,2.0,17,0.00,,,0.00,Wunderground v.1.15,2013-03-22 15:57:00,
2013-03-22 10:02:00,52.1,8.5,29.76,North,5,0.0,0.0,17,0.00,,,0.00,Wunderground v.1.15,2013-03-22 16:02:00,
2013-03-22 10:07:00,52.8,9.1,29.76,North,5,0.0,3.0,17,0.00,,,0.00,Wunderground v.1.15,2013-03-22 16:07:00,
2013-03-22 10:12:00,53.2,8.1,29.76,North,5,1.0,3.0,16,0.00,,,0.00,Wunderground v.1.15,2013-03-22 16:12:00,
2013-03-22 10:17:00,53.5,8.3,29.75,North,5,1.0,3.0,16,0.00,,,0.00,Wunderground v.1.15,2013-03-22 16:17:00,
2013-03-22 10:23:00,54.4,9.1,29.75,North,5,0.0,1.0,16,0.00,,,0.00,Wunderground v.1.15,2013-03-22 16:23:00,
2013-03-22 10:28:00,55.7,10.1,29.75,North,5,0.0,1.0,16,0.00,,,0.00,Wunderground v.1.15,2013-03-22 16:28:00,
2013-03-22 10:33:00,55.8,8.8,29.75,North,5,0.0,0.0,15,0.00,,,0.00,Wunderground v.1.15,2013-03-22 16:33:00,
2013-03-22 10:39:00,55.0,8.1,29.74,North,5,1.0,4.0,15,0.00,,,0.00,Wunderground v.1.15,2013-03-22 16:39:00,
2013-03-22 10:44:00,55.1,8.2,29.74,NNE,13,2.0,4.0,15,0.00,,,0.00,Wunderground v.1.15,2013-03-22 16:44:00,
2013-03-22 10:49:00,55.2,8.3,29.74,NNE,17,2.0,4.0,15,0.00,,,0.00,Wunderground v.1.15,2013-03-22 16:49:00,
2013-03-22 10:55:00,55.1,9.6,29.73,NNE,23,2.0,5.0,16,0.00,,,0.00,Wunderground v.1.15,2013-03-22 16:55:00,
2013-03-22 11:00:00,55.6,8.6,29.73,SW,221,3.0,3.0,15,0.00,,,0.00,Wunderground v.1.15,2013-03-22 17:00:00,
2013-03-22 11:06:00,55.9,8.8,29.73,SW,221,2.0,5.0,15,0.00,,,0.00,Wunderground v.1.15,2013-03-22 17:06:00,
2013-03-22 11:11:00,56.9,9.6,29.73,SW,223,2.0,3.0,15,0.00,,,0.00,Wunderground v.1.15,2013-03-22 17:11:00,
2013-03-22 11:16:00,57.9,8.9,29.73,SW,223,1.0,3.0,14,0.00,,,0.00,Wunderground v.1.15,2013-03-22 17:16:00,
2013-03-22 11:22:00,58.7,7.9,29.73,SW,218,1.0,6.0,13,0.00,,,0.00,Wunderground v.1.15,2013-03-22 17:22:00,
2013-03-22 11:27:00,58.6,9.5,29.73,SSW,193,2.0,6.0,14,0.00,,,0.00,Wunderground v.1.15,2013-03-22 17:27:00,
2013-03-22 11:32:00,57.8,8.8,29.72,SSW,192,2.0,3.0,14,0.00,,,0.00,Wunderground v.1.15,2013-03-22 17:32:00,
2013-03-22 11:37:00,58.2,7.5,29.72,SSW,192,2.0,6.0,13,0.00,,,0.00,Wunderground v.1.15,2013-03-22 17:37:00,
2013-03-22 11:43:00,58.6,7.8,29.72,South,186,1.0,4.0,13,0.00,,,0.00,Wunderground v.1.15,2013-03-22 17:43:00,
2013-03-22 11:48:00,58.7,7.9,29.72,SW,214,2.0,6.0,13,0.00,,,0.00,Wunderground v.1.15,2013-03-22 17:48:00,
2013-03-22 11:53:00,58.7,6.1,29.72,SW,216,3.0,5.0,12,0.00,,,0.00,Wunderground v.1.15,2013-03-22 17:53:00,
2013-03-22 11:58:00,58.8,8.0,29.71,SW,217,3.0,10.0,13,0.00,,,0.00,Wunderground v.1.15,2013-03-22 17:58:00,
2013-03-22 12:04:00,59.2,8.3,29.71,SSW,206,4.0,9.0,13,0.00,,,0.00,Wunderground v.1.15,2013-03-22 18:04:00,
2013-03-22 12:09:00,59.5,8.5,29.71,WSW,240,5.0,9.0,13,0.00,,,0.00,Wunderground v.1.15,2013-03-22 18:09:00,
2013-03-22 12:14:00,60.2,9.1,29.70,WNW,286,4.0,7.0,13,0.00,,,0.00,Wunderground v.1.15,2013-03-22 18:14:00,
2013-03-22 12:20:00,61.2,9.9,29.70,SW,217,4.0,4.0,13,0.00,,,0.00,Wunderground v.1.15,2013-03-22 18:20:00,
2013-03-22 12:25:00,61.7,10.3,29.69,West,260,3.0,7.0,13,0.00,,,0.00,Wunderground v.1.15,2013-03-22 18:25:00,
2013-03-22 12:30:00,62.0,8.7,29.69,WSW,248,4.0,6.0,12,0.00,,,0.00,Wunderground v.1.15,2013-03-22 18:30:00,
2013-03-22 12:35:00,61.5,10.1,29.68,WSW,240,4.0,6.0,13,0.00,,,0.00,Wunderground v.1.15,2013-03-22 18:35:00,
2013-03-22 12:40:00,62.0,10.5,29.68,SW,218,2.0,4.0,13,0.00,,,0.00,Wunderground v.1.15,2013-03-22 18:40:00,
2013-03-22 12:45:00,62.4,9.0,29.67,SSW,208,3.0,13.0,12,0.00,,,0.00,Wunderground v.1.15,2013-03-22 18:45:00,
2013-03-22 12:51:00,62.5,10.9,29.67,SW,220,5.0,5.0,13,0.00,,,0.00,Wunderground v.1.15,2013-03-22 18:51:00,
2013-03-22 12:56:00,62.5,10.9,29.66,SW,236,5.0,8.0,13,0.00,,,0.00,Wunderground v.1.15,2013-03-22 18:56:00,
2013-03-22 13:02:00,62.5,9.1,29.66,WSW,238,4.0,5.0,12,0.00,,,0.00,Wunderground v.1.15,2013-03-22 19:02:00,
2013-03-22 13:08:00,63.1,11.4,29.65,SSW,204,3.0,16.0,13,0.00,,,0.00,Wunderground v.1.15,2013-03-22 19:08:00,
2013-03-22 13:13:00,63.9,10.2,29.65,South,181,4.0,8.0,12,0.00,,,0.00,Wunderground v.1.15,2013-03-22 19:13:00,
2013-03-22 13:18:00,63.6,10.0,29.64,SE,129,4.0,8.0,12,0.00,,,0.00,Wunderground v.1.15,2013-03-22 19:18:00,
2013-03-22 13:24:00,62.6,9.2,29.64,ESE,115,3.0,7.0,12,0.00,,,0.00,Wunderground v.1.15,2013-03-22 19:24:00,
2013-03-22 13:29:00,62.0,10.5,29.64,East,86,4.0,7.0,13,0.00,,,0.00,Wunderground v.1.15,2013-03-22 19:29:00,
2013-03-22 13:35:00,61.8,10.4,29.63,East,96,3.0,11.0,13,0.00,,,0.00,Wunderground v.1.15,2013-03-22 19:35:00,
2013-03-22 13:40:00,61.1,9.8,29.63,East,90,4.0,4.0,13,0.00,,,0.00,Wunderground v.1.15,2013-03-22 19:40:00,
2013-03-22 13:45:00,60.7,9.5,29.63,East,90,4.0,4.0,13,0.00,,,0.00,Wunderground v.1.15,2013-03-22 19:45:00,
2013-03-22 13:50:00,60.7,9.5,29.62,East,90,2.0,2.0,13,0.00,,,0.00,Wunderground v.1.15,2013-03-22 19:50:00,
2013-03-22 13:55:00,61.0,9.7,29.62,East,84,2.0,5.0,13,0.00,,,0.00,Wunderground v.1.15,2013-03-22 19:55:00,
2013-03-22 14:00:00,61.0,9.7,29.62,East,84,3.0,3.0,13,0.00,,,0.00,Wunderground v.1.15,2013-03-22 20:00:00,
2013-03-22 14:06:00,61.0,9.7,29.61,East,79,3.0,7.0,13,0.00,,,0.00,Wunderground v.1.15,2013-03-22 20:06:00,
2013-03-22 14:11:00,61.1,9.8,29.62,East,80,3.0,6.0,13,0.00,,,0.00,Wunderground v.1.15,2013-03-22 20:11:00,
2013-03-22 14:17:00,60.9,9.6,29.61,East,80,2.0,6.0,13,0.00,,,0.00,Wunderground v.1.15,2013-03-22 20:17:00,
2013-03-22 14:22:00,61.0,9.7,29.62,ENE,78,1.0,1.0,13,0.00,,,0.00,Wunderground v.1.15,2013-03-22 20:22:00,
2013-03-22 14:28:00,60.9,9.6,29.61,East,79,1.0,6.0,13,0.00,,,0.00,Wunderground v.1.15,2013-03-22 20:28:00,
2013-03-22 14:33:00,60.9,9.6,29.61,East,82,3.0,8.0,13,0.00,,,0.00,Wunderground v.1.15,2013-03-22 20:33:00,
2013-03-22 14:39:00,60.7,9.5,29.61,East,87,5.0,8.0,13,0.00,,,0.00,Wunderground v.1.15,2013-03-22 20:39:00,
2013-03-22 14:44:00,60.6,9.4,29.61,East,87,3.0,4.0,13,0.00,,,0.00,Wunderground v.1.15,2013-03-22 20:44:00,
2013-03-22 14:49:00,60.6,9.4,29.61,East,87,1.0,4.0,13,0.00,,,0.00,Wunderground v.1.15,2013-03-22 20:49:00,
2013-03-22 14:55:00,60.9,9.6,29.61,East,87,0.0,1.0,13,0.00,,,0.00,Wunderground v.1.15,2013-03-22 20:55:00,
2013-03-22 15:00:00,61.2,9.9,29.60,East,87,0.0,0.0,13,0.00,,,0.00,Wunderground v.1.15,2013-03-22 21:00:00,
2013-03-22 15:06:00,61.7,10.3,29.60,East,87,0.0,1.0,13,0.00,,,0.00,Wunderground v.1.15,2013-03-22 21:06:00,
2013-03-22 15:11:00,62.2,10.7,29.60,East,87,0.0,2.0,13,0.00,,,0.00,Wunderground v.1.15,2013-03-22 21:11:00,
2013-03-22 15:17:00,62.6,11.0,29.59,West,272,1.0,8.0,13,0.00,,,0.00,Wunderground v.1.15,2013-03-22 21:17:00,
2013-03-22 15:23:00,63.0,11.3,29.59,NW,314,3.0,3.0,13,0.00,,,0.00,Wunderground v.1.15,2013-03-22 21:23:00,
2013-03-22 15:28:00,63.1,11.4,29.59,NW,313,2.0,4.0,13,0.00,,,0.00,Wunderground v.1.15,2013-03-22 21:28:00,
2013-03-22 15:34:00,63.1,11.4,29.60,NW,309,1.0,3.0,13,0.00,,,0.00,Wunderground v.1.15,2013-03-22 21:34:00,
2013-03-22 15:39:00,63.1,11.4,29.60,NW,309,1.0,3.0,13,0.00,,,0.00,Wunderground v.1.15,2013-03-22 21:39:00,
2013-03-22 15:45:00,63.9,12.0,29.59,NW,309,0.0,1.0,13,0.00,,,0.00,Wunderground v.1.15,2013-03-22 21:45:00,
2013-03-22 15:51:00,64.5,10.7,29.58,NNE,15,1.0,2.0,12,0.00,,,0.00,Wunderground v.1.15,2013-03-22 21:51:00,
2013-03-22 15:56:00,64.6,12.6,29.58,North,5,3.0,11.0,13,0.00,,,0.00,Wunderground v.1.15,2013-03-22 21:56:00,
2013-03-22 16:01:00,65.3,13.1,29.57,NNW,333,6.0,19.0,13,0.00,,,0.00,Wunderground v.1.15,2013-03-22 22:01:00,
2013-03-22 16:07:00,67.6,14.9,29.58,West,277,12.0,20.0,13,0.00,,,0.00,Wunderground v.1.15,2013-03-22 22:07:00,
2013-03-22 16:12:00,66.8,14.3,29.57,West,275,15.0,16.0,13,0.00,,,0.00,Wunderground v.1.15,2013-03-22 22:12:00,
2013-03-22 16:18:00,67.4,13.0,29.57,WNW,284,15.0,23.0,12,0.00,,,0.00,Wunderground v.1.15,2013-03-22 22:18:00,
2013-03-22 16:23:00,67.5,14.9,29.57,WNW,298,16.0,23.0,13,0.00,,,0.00,Wunderground v.1.15,2013-03-22 22:23:00,
2013-03-22 16:29:00,67.6,14.9,29.57,NW,311,15.0,23.0,13,0.00,,,0.00,Wunderground v.1.15,2013-03-22 22:29:00,
2013-03-22 16:34:00,67.9,13.3,29.56,WNW,292,16.0,24.0,12,0.00,,,0.00,Wunderground v.1.15,2013-03-22 22:34:00,
2013-03-22 16:40:00,68.2,13.6,29.56,West,280,16.0,22.0,12,0.00,,,0.00,Wunderground v.1.15,2013-03-22 22:40:00,
2013-03-22 16:45:00,68.4,15.6,29.56,WNW,297,16.0,22.0,13,0.00,,,0.00,Wunderground v.1.15,2013-03-22 22:45:00,
2013-03-22 16:51:00,68.1,15.3,29.56,NW,325,14.0,15.0,13,0.00,,,0.00,Wunderground v.1.15,2013-03-22 22:51:00,
2013-03-22 16:57:00,67.9,15.2,29.56,WSW,258,13.0,16.0,13,0.00,,,0.00,Wunderground v.1.15,2013-03-22 22:57:00,
2013-03-22 17:02:00,66.7,14.2,29.56,NW,306,13.0,14.0,13,0.00,,,0.00,Wunderground v.1.15,2013-03-22 23:02:00,
2013-03-22 17:08:00,66.5,15.8,29.56,NNW,335,12.0,14.0,14,0.00,,,0.00,Wunderground v.1.15,2013-03-22 23:08:00,
2013-03-22 17:13:00,67.2,14.6,29.56,West,281,11.0,12.0,13,0.00,,,0.00,Wunderground v.1.15,2013-03-22 23:13:00,
2013-03-22 17:18:00,68.2,13.6,29.55,NW,317,12.0,14.0,12,0.00,,,0.00,Wunderground v.1.15,2013-03-22 23:18:00,
2013-03-22 17:24:00,68.2,11.6,29.55,WNW,292,11.0,18.0,11,0.00,,,0.00,Wunderground v.1.15,2013-03-22 23:24:00,
2013-03-22 17:30:00,67.9,11.4,29.55,WNW,298,13.0,13.0,11,0.00,,,0.00,Wunderground v.1.15,2013-03-22 23:30:00,
2013-03-22 17:35:00,67.7,9.1,29.54,WNW,294,14.0,15.0,10,0.00,,,0.00,Wunderground v.1.15,2013-03-22 23:35:00,
2013-03-22 17:40:00,67.7,6.7,29.55,WNW,302,13.0,13.0,9,0.00,,,0.00,Wunderground v.1.15,2013-03-22 23:40:00,
2013-03-22 17:45:00,68.0,7.0,29.55,NW,308,13.0,19.0,9,0.00,,,0.00,Wunderground v.1.15,2013-03-22 23:45:00,
2013-03-22 17:51:00,67.8,6.8,29.55,WNW,300,15.0,15.0,9,0.00,,,0.00,Wunderground v.1.15,2013-03-22 23:51:00,
2013-03-22 17:56:00,67.6,6.7,29.55,WNW,300,16.0,17.0,9,0.00,,,0.00,Wunderground v.1.15,2013-03-22 23:56:00,
2013-03-22 18:01:00,67.5,6.6,29.55,NW,309,14.0,19.0,9,0.00,,,0.00,Wunderground v.1.15,2013-03-23 00:01:00,
2013-03-22 18:07:00,67.0,6.2,29.55,NW,323,13.0,19.0,9,0.00,,,0.00,Wunderground v.1.15,2013-03-23 00:07:00,
2013-03-22 18:12:00,66.2,7.9,29.55,NW,321,12.0,15.0,10,0.00,,,0.00,Wunderground v.1.15,2013-03-23 00:12:00,
2013-03-22 18:17:00,65.3,7.2,29.56,NW,326,13.0,19.0,10,0.00,,,0.00,Wunderground v.1.15,2013-03-23 00:17:00,
2013-03-22 18:23:00,64.3,8.6,29.56,NW,313,13.0,13.0,11,0.00,,,0.00,Wunderground v.1.15,2013-03-23 00:23:00,
2013-03-22 18:29:00,63.8,8.2,29.56,NW,311,10.0,13.0,11,0.00,,,0.00,Wunderground v.1.15,2013-03-23 00:29:00,
2013-03-22 18:35:00,63.9,8.3,29.57,NW,321,9.0,14.0,11,0.00,,,0.00,Wunderground v.1.15,2013-03-23 00:35:00,
2013-03-22 18:41:00,64.2,8.5,29.57,NNW,329,9.0,10.0,11,0.00,,,0.00,Wunderground v.1.15,2013-03-23 00:41:00,
2013-03-22 18:47:00,64.1,8.4,29.57,NW,319,10.0,14.0,11,0.00,,,0.00,Wunderground v.1.15,2013-03-23 00:47:00,
2013-03-22 18:52:00,63.9,8.3,29.57,NW,304,12.0,17.0,11,0.00,,,0.00,Wunderground v.1.15,2013-03-23 00:52:00,
2013-03-22 18:57:00,63.5,11.7,29.57,WNW,302,13.0,19.0,13,0.00,,,0.00,Wunderground v.1.15,2013-03-23 00:57:00,
2013-03-22 19:03:00,63.0,13.0,29.58,WNW,289,15.0,20.0,14,0.00,,,0.00,Wunderground v.1.15,2013-03-23 01:03:00,
2013-03-22 19:08:00,62.6,14.2,29.58,WNW,290,15.0,20.0,15,0.00,,,0.00,Wunderground v.1.15,2013-03-23 01:08:00,
2013-03-22 19:14:00,62.0,15.2,29.58,WNW,297,14.0,25.0,16,0.00,,,0.00,Wunderground v.1.15,2013-03-23 01:14:00,
2013-03-22 19:19:00,61.6,14.9,29.59,NW,315,14.0,25.0,16,0.00,,,0.00,Wunderground v.1.15,2013-03-23 01:19:00,
2013-03-22 19:24:00,61.3,16.1,29.59,WNW,296,13.0,20.0,17,0.00,,,0.00,Wunderground v.1.15,2013-03-23 01:24:00,
2013-03-22 19:30:00,60.9,17.0,29.60,West,274,15.0,15.0,18,0.00,,,0.00,Wunderground v.1.15,2013-03-23 01:30:00,
2013-03-22 19:36:00,60.5,18.0,29.60,West,271,14.0,15.0,19,0.00,,,0.00,Wunderground v.1.15,2013-03-23 01:36:00,
2013-03-22 19:41:00,60.1,17.6,29.61,West,276,12.0,14.0,19,0.00,,,0.00,Wunderground v.1.15,2013-03-23 01:41:00,
2013-03-22 19:47:00,59.6,19.6,29.61,West,268,12.0,24.0,21,0.00,,,0.00,Wunderground v.1.15,2013-03-23 01:47:00,
2013-03-22 19:53:00,58.5,22.8,29.61,West,279,17.0,20.0,25,0.00,,,0.00,Wunderground v.1.15,2013-03-23 01:53:00,
2013-03-22 19:58:00,57.9,24.1,29.62,West,280,18.0,20.0,27,0.00,,,0.00,Wunderground v.1.15,2013-03-23 01:58:00,
2013-03-22 20:03:00,57.3,24.4,29.61,West,268,19.0,26.0,28,0.00,,,0.00,Wunderground v.1.15,2013-03-23 02:03:00,
2013-03-22 20:08:00,57.1,25.1,29.61,West,278,20.0,26.0,29,0.00,,,0.00,Wunderground v.1.15,2013-03-23 02:08:00,
2013-03-22 20:14:00,56.8,25.7,29.62,WNW,286,22.0,22.0,30,0.00,,,0.00,Wunderground v.1.15,2013-03-23 02:14:00,
2013-03-22 20:19:00,56.5,26.2,29.61,West,278,21.0,22.0,31,0.00,,,0.00,Wunderground v.1.15,2013-03-23 02:19:00,
2013-03-22 20:25:00,56.3,26.0,29.62,WSW,249,20.0,23.0,31,0.00,,,0.00,Wunderground v.1.15,2013-03-23 02:25:00,
2013-03-22 20:30:00,55.9,25.7,29.63,West,281,18.0,18.0,31,0.00,,,0.00,Wunderground v.1.15,2013-03-23 02:30:00,
2013-03-22 20:36:00,55.5,26.8,29.63,West,277,17.0,18.0,33,0.00,,,0.00,Wunderground v.1.15,2013-03-23 02:36:00,
2013-03-22 20:42:00,55.1,27.2,29.62,West,266,16.0,18.0,34,0.00,,,0.00,Wunderground v.1.15,2013-03-23 02:42:00,
2013-03-22 20:47:00,54.9,27.0,29.63,West,267,16.0,21.0,34,0.00,,,0.00,Wunderground v.1.15,2013-03-23 02:47:00,
2013-03-22 20:53:00,54.6,26.8,29.63,West,268,15.0,18.0,34,0.00,,,0.00,Wunderground v.1.15,2013-03-23 02:53:00,
2013-03-22 20:59:00,54.5,26.7,29.63,West,279,15.0,18.0,34,0.00,,,0.00,Wunderground v.1.15,2013-03-23 02:59:00,
2013-03-22 21:04:00,54.4,26.6,29.63,WSW,257,16.0,18.0,34,0.00,,,0.00,Wunderground v.1.15,2013-03-23 03:04:00,
2013-03-22 21:09:00,54.4,26.6,29.63,West,269,15.0,18.0,34,0.00,,,0.00,Wunderground v.1.15,2013-03-23 03:09:00,
2013-03-22 21:14:00,54.3,26.5,29.64,West,270,15.0,19.0,34,0.00,,,0.00,Wunderground v.1.15,2013-03-23 03:14:00,
2013-03-22 21:19:00,54.1,26.3,29.64,West,269,14.0,19.0,34,0.00,,,0.00,Wunderground v.1.15,2013-03-23 03:19:00,
2013-03-22 21:25:00,53.8,26.1,29.64,WSW,255,14.0,19.0,34,0.00,,,0.00,Wunderground v.1.15,2013-03-23 03:25:00,
2013-03-22 21:30:00,53.7,26.0,29.64,West,269,15.0,15.0,34,0.00,,,0.00,Wunderground v.1.15,2013-03-23 03:30:00,
2013-03-22 21:36:00,53.8,26.1,29.64,West,276,16.0,23.0,34,0.00,,,0.00,Wunderground v.1.15,2013-03-23 03:36:00,
2013-03-22 21:41:00,53.8,26.8,29.64,West,263,16.0,18.0,35,0.00,,,0.00,Wunderground v.1.15,2013-03-23 03:41:00,
2013-03-22 21:46:00,53.7,27.4,29.64,West,276,16.0,19.0,36,0.00,,,0.00,Wunderground v.1.15,2013-03-23 03:46:00,
2013-03-22 21:51:00,53.6,27.3,29.65,West,262,15.0,17.0,36,0.00,,,0.00,Wunderground v.1.15,2013-03-23 03:51:00,
2013-03-22 21:56:00,53.5,27.2,29.65,West,276,15.0,17.0,36,0.00,,,0.00,Wunderground v.1.15,2013-03-23 03:56:00,
2013-03-22 22:00:00,53.3,27.0,29.65,West,274,15.0,15.0,36,0.00,,,0.00,Wunderground v.1.15,2013-03-23 04:00:00,
2013-03-22 22:01:00,53.3,27.7,29.65,West,270,15.0,15.0,37,0.00,,,0.00,Wunderground v.1.15,2013-03-23 04:01:00,
2013-03-22 22:02:00,53.2,27.6,29.65,West,275,15.0,15.0,37,0.00,,,0.00,Wunderground v.1.15,2013-03-23 04:02:00,
2013-03-22 22:03:00,53.2,27.6,29.65,West,276,15.0,15.0,37,0.00,,,0.00,Wunderground v.1.15,2013-03-23 04:03:00,
2013-03-22 22:08:00,53.1,27.5,29.65,WNW,282,15.0,18.0,37,0.00,,,0.00,Wunderground v.1.15,2013-03-23 04:08:00,
2013-03-22 22:14:00,53.0,26.7,29.64,West,271,14.0,16.0,36,0.00,,,0.00,Wunderground v.1.15,2013-03-23 04:14:00,
2013-03-22 22:20:00,53.1,26.8,29.65,WNW,288,16.0,17.0,36,0.00,,,0.00,Wunderground v.1.15,2013-03-23 04:20:00,
2013-03-22 22:26:00,52.9,26.6,29.65,West,276,15.0,19.0,36,0.00,,,0.00,Wunderground v.1.15,2013-03-23 04:26:00,
2013-03-22 22:31:00,52.7,26.5,29.65,West,275,14.0,21.0,36,0.00,,,0.00,Wunderground v.1.15,2013-03-23 04:31:00,
2013-03-22 22:37:00,52.6,26.4,29.65,West,273,14.0,21.0,36,0.00,,,0.00,Wunderground v.1.15,2013-03-23 04:37:00,
2013-03-22 22:42:00,52.5,26.3,29.65,West,275,14.0,20.0,36,0.00,,,0.00,Wunderground v.1.15,2013-03-23 04:42:00,
2013-03-22 22:48:00,52.5,26.3,29.65,West,279,16.0,20.0,36,0.00,,,0.00,Wunderground v.1.15,2013-03-23 04:48:00,
2013-03-22 22:54:00,52.6,25.7,29.65,West,275,16.0,18.0,35,0.00,,,0.00,Wunderground v.1.15,2013-03-23 04:54:00,
2013-03-22 22:59:00,52.7,25.8,29.65,West,277,16.0,18.0,35,0.00,,,0.00,Wunderground v.1.15,2013-03-23 04:59:00,
2013-03-22 23:05:00,52.7,25.8,29.65,West,271,16.0,17.0,35,0.00,,,0.00,Wunderground v.1.15,2013-03-23 05:05:00,
2013-03-22 23:11:00,52.6,25.7,29.66,WNW,285,16.0,16.0,35,0.00,,,0.00,Wunderground v.1.15,2013-03-23 05:11:00,
2013-03-22 23:17:00,52.3,26.1,29.66,West,279,14.0,16.0,36,0.00,,,0.00,Wunderground v.1.15,2013-03-23 05:17:00,
2013-03-22 23:23:00,52.1,26.6,29.65,West,271,12.0,14.0,37,0.00,,,0.00,Wunderground v.1.15,2013-03-23 05:23:00,
2013-03-22 23:28:00,51.8,26.3,29.65,West,271,11.0,14.0,37,0.00,,,0.00,Wunderground v.1.15,2013-03-23 05:28:00,
2013-03-22 23:33:00,51.6,26.1,29.65,West,275,11.0,11.0,37,0.00,,,0.00,Wunderground v.1.15,2013-03-23 05:33:00,
2013-03-22 23:39:00,51.5,26.7,29.65,WNW,288,13.0,16.0,38,0.00,,,0.00,Wunderground v.1.15,2013-03-23 05:39:00,
2013-03-22 23:45:00,51.3,26.5,29.66,WNW,285,13.0,16.0,38,0.00,,,0.00,Wunderground v.1.15,2013-03-23 05:45:00,
2013-03-22 23:50:00,51.2,26.4,29.65,West,281,12.0,14.0,38,0.00,,,0.00,Wunderground v.1.15,2013-03-23 05:50:00,
2013-03-22 23:55:00,51.1,26.3,29.65,WNW,288,11.0,14.0,38,0.00,,,0.00,Wunderground v.1.15,2013-03-23 05:55:00,